Fort Collins, CO

3:32 PM MDT on August 26, 2016 (GMT -0600)
Fort Collins-Loveland Municipal

Weather History for KFNL - October, 2011

Change the Weather History Date:

Saturday, October 8, 2011

  Actual Average Record
Temperature  
Mean Temperature 45 °F -  
Max Temperature 51 °F - 78 °F (2003)
Min Temperature 39 °F - 28 °F (2000)
Degree Days  
Heating Degree Days 20    
Month to date heating degree days  
Cooling Degree Days 0    
Month to date cooling degree days  
Moisture  
Dew Point 31 °F    
Average Humidity 63    
Maximum Humidity 87    
Minimum Humidity 28    
Precipitation  
Precipitation 0.34 in - 0.34 in (2011)
Sea Level Pressure  
Sea Level Pressure 30.00 in    
Wind  
Wind Speed 15 mph (North)    
Max Wind Speed 29 mph    
Max Gust Speed 36 mph    
Visibility 10 miles    
Events      
T = Trace of Precipitation, MM = Missing Value Source: NWS Daily Summary

Daily Weather History Graph

Daily Weather History Graph

Search for Another Location

Airport or City:

Trip Planner

Search our weather history database for the weather conditions in past years. The results will help you decide how hot, cold, wet, or windy it might be!

Date:

Astronomy

Oct. 08, 2011 Rise Set
Actual Time 7:03 AM MDT 6:31 PM MDT
Civil Twilight 6:36 AM MDT 6:58 PM MDT
Nautical Twilight 6:04 AM MDT 7:29 PM MDT
Astronomical Twilight 5:32 AM MDT 8:01 PM MDT
Moon 4:43 PM MDT (10/8) 3:52 AM MDT (10/8)
Length of Visible Light 12h 22m
Length of Day
11h 27m
Waxing Gibbous, 90% of the Moon is Illuminated
Oct 8
Waxing Gibbous
Oct 11
Full
Oct 19
Last Quarter
Oct 26
New
Nov 2
First Quarter

Hourly Weather History & Observations

Time (MDT) Temp. Windchill Dew Point Humidity Pressure Visibility Wind Dir Wind Speed Gust Speed Precip Events Conditions
12:15 AM 51.8 °F - 19.4 °F 28% 29.88 in 10.0 mi NE 12.7 mph - N/A   Overcast
12:35 AM 51.8 °F - 21.2 °F 30% 29.88 in 10.0 mi NNE 11.5 mph - N/A   Overcast
12:55 AM 51.8 °F - 21.2 °F 30% 29.92 in 10.0 mi East 11.5 mph - N/A   Overcast
1:15 AM 48.2 °F - 21.2 °F 34% 29.90 in 10.0 mi NE 10.4 mph - N/A   Overcast
1:35 AM 46.4 °F 40.1 °F 23.0 °F 40% 29.91 in 10.0 mi NE 15.0 mph - N/A   Scattered Clouds
1:55 AM 46.4 °F 39.8 °F 24.8 °F 43% 29.91 in 10.0 mi NE 16.1 mph 20.7 mph N/A   Mostly Cloudy
2:15 AM 46.4 °F 40.1 °F 24.8 °F 43% 29.93 in 10.0 mi ENE 15.0 mph 24.2 mph N/A   Mostly Cloudy
2:35 AM 46.4 °F 41.1 °F 24.8 °F 43% 29.96 in 10.0 mi NE 11.5 mph - N/A   Overcast
2:55 AM 46.4 °F 40.7 °F 24.8 °F 43% 29.97 in 10.0 mi NE 12.7 mph - N/A   Overcast
3:15 AM 46.4 °F 41.9 °F 24.8 °F 43% 29.97 in 10.0 mi NNE 9.2 mph - N/A   Overcast
3:35 AM 46.4 °F 42.4 °F 24.8 °F 43% 29.98 in 10.0 mi North 8.1 mph - N/A   Overcast
3:55 AM 46.4 °F 42.4 °F 24.8 °F 43% 29.98 in 10.0 mi North 8.1 mph - N/A   Overcast
4:15 AM 46.4 °F 41.5 °F 24.8 °F 43% 29.98 in 10.0 mi North 10.4 mph - N/A   Overcast
4:35 AM 46.4 °F 40.4 °F 24.8 °F 43% 29.96 in 10.0 mi NNE 13.8 mph 19.6 mph N/A   Overcast
4:55 AM 46.4 °F 41.5 °F 24.8 °F 43% 30.00 in 10.0 mi North 10.4 mph - N/A   Overcast
5:15 AM 46.4 °F 40.4 °F 24.8 °F 43% 29.99 in 10.0 mi North 13.8 mph - N/A   Overcast
5:35 AM 46.4 °F 40.4 °F 24.8 °F 43% 30.01 in 10.0 mi NNW 13.8 mph - N/A   Overcast
5:55 AM 46.4 °F 40.4 °F 24.8 °F 43% 30.01 in 10.0 mi North 13.8 mph - N/A   Overcast
6:15 AM 46.4 °F 39.8 °F 24.8 °F 43% 30.00 in 10.0 mi NNE 16.1 mph 23.0 mph N/A   Overcast
6:35 AM 44.6 °F 39.2 °F 28.4 °F 53% 30.00 in 10.0 mi NNE 10.4 mph - N/A   Overcast
6:55 AM 44.6 °F 37.8 °F 28.4 °F 53% 30.01 in 10.0 mi North 15.0 mph 23.0 mph N/A   Overcast
7:15 AM 44.6 °F 38.4 °F 28.4 °F 53% 29.99 in 10.0 mi NNW 12.7 mph 18.4 mph N/A   Overcast
7:35 AM 42.8 °F 36.2 °F 30.2 °F 61% 29.99 in 10.0 mi North 12.7 mph - N/A   Overcast
7:55 AM 42.8 °F 35.1 °F 28.4 °F 57% 30.00 in 10.0 mi North 16.1 mph - N/A   Overcast
8:15 AM 42.8 °F 35.8 °F 30.2 °F 61% 30.01 in 10.0 mi North 13.8 mph - N/A   Overcast
8:35 AM 41.0 °F 33.9 °F 33.8 °F 76% 30.00 in 10.0 mi North 12.7 mph 20.7 mph N/A   Overcast
8:55 AM 41.0 °F 32.2 °F 33.8 °F 76% 30.01 in 10.0 mi North 18.4 mph 23.0 mph N/A   Overcast
9:15 AM 41.0 °F 31.9 °F 33.8 °F 76% 30.01 in 10.0 mi NNW 19.6 mph - N/A   Overcast
9:35 AM 41.0 °F 31.9 °F 33.8 °F 76% 30.00 in 10.0 mi NNW 19.6 mph - N/A   Overcast
10:15 AM 41.0 °F 32.5 °F 33.8 °F 76% 30.00 in 10.0 mi NNW 17.3 mph 23.0 mph N/A   Overcast
10:35 AM 39.2 °F 29.6 °F 33.8 °F 81% 30.01 in 9.0 mi NNW 19.6 mph 25.3 mph N/A   Overcast
11:15 AM 39.2 °F 31.2 °F 35.6 °F 87% 30.01 in 8.0 mi NW 13.8 mph 21.9 mph 0.01 in   Overcast
11:35 AM 39.2 °F 30.2 °F 35.6 °F 87% 30.02 in 10.0 mi NW 17.3 mph - 0.05 in   Overcast
11:55 AM 41.0 °F 30.9 °F 35.6 °F 81% 30.02 in 9.0 mi NW 24.2 mph 31.1 mph 0.08 in   Overcast
12:15 PM 39.2 °F 29.3 °F 35.6 °F 87% 30.01 in 8.0 mi NNW 20.7 mph 33.4 mph 0.03 in   Overcast
12:35 PM 41.0 °F 30.0 °F 35.6 °F 81% 30.01 in 5.0 mi NW 28.8 mph 35.7 mph 0.06 in   Overcast
1:15 PM 39.2 °F 30.2 °F 35.6 °F 87% 30.01 in 10.0 mi NW 17.3 mph 27.6 mph 0.03 in   Overcast
1:35 PM 39.2 °F 29.3 °F 35.6 °F 87% 30.02 in 10.0 mi NNW 20.7 mph - 0.06 in   Overcast
1:55 PM 41.0 °F 31.9 °F 35.6 °F 81% 30.02 in 10.0 mi NNW 19.6 mph 24.2 mph 0.08 in   Overcast
2:15 PM 41.0 °F 32.2 °F 37.4 °F 87% 30.02 in 10.0 mi NNW 18.4 mph - N/A   Overcast
2:35 PM 41.0 °F 31.9 °F 37.4 °F 87% 30.02 in 10.0 mi NNW 19.6 mph 27.6 mph 0.02 in   Overcast
2:55 PM 42.8 °F 34.3 °F 37.4 °F 81% 30.02 in 10.0 mi NW 19.6 mph 24.2 mph 0.04 in   Overcast
3:15 PM 42.8 °F 34.5 °F 37.4 °F 81% 30.03 in 10.0 mi NW 18.4 mph 27.6 mph 0.02 in   Overcast
3:35 PM 42.8 °F 34.3 °F 37.4 °F 81% 30.04 in 10.0 mi NW 19.6 mph 23.0 mph 0.04 in   Overcast
3:55 PM 42.8 °F 34.3 °F 37.4 °F 81% 30.05 in 10.0 mi NW 19.6 mph 26.5 mph 0.05 in   Overcast
4:15 PM 42.8 °F 33.8 °F 37.4 °F 81% 30.05 in 10.0 mi NW 21.9 mph 27.6 mph 0.01 in   Overcast
4:35 PM 42.8 °F 33.5 °F 37.4 °F 81% 30.06 in 10.0 mi NNW 23.0 mph 31.1 mph 0.02 in   Overcast
4:55 PM 42.8 °F 34.5 °F 37.4 °F 81% 30.07 in 10.0 mi NNW 18.4 mph 28.8 mph 0.02 in   Overcast
5:15 PM 42.8 °F 34.0 °F 37.4 °F 81% 30.08 in 10.0 mi NNW 20.7 mph 26.5 mph 0.01 in   Overcast
5:35 PM 42.8 °F 33.1 °F 35.6 °F 76% 30.09 in 10.0 mi NNW 25.3 mph 29.9 mph 0.01 in   Overcast
5:55 PM 42.8 °F 34.3 °F 35.6 °F 76% 30.10 in 10.0 mi NW 19.6 mph 29.9 mph 0.01 in   Overcast
6:15 PM 42.8 °F 33.3 °F 35.6 °F 76% 30.11 in 10.0 mi NW 24.2 mph 33.4 mph N/A   Overcast
6:35 PM 42.8 °F 33.3 °F 35.6 °F 76% 30.12 in 10.0 mi NNW 24.2 mph 32.2 mph N/A   Overcast
6:55 PM 42.8 °F 34.8 °F 35.6 °F 76% 30.13 in 10.0 mi NNW 17.3 mph 26.5 mph N/A   Overcast
7:15 PM 42.8 °F 34.5 °F 35.6 °F 76% 30.14 in 10.0 mi NNW 18.4 mph 23.0 mph N/A   Overcast
7:35 PM 44.6 °F 36.6 °F 33.8 °F 66% 30.15 in 10.0 mi NNW 19.6 mph 27.6 mph N/A   Overcast
8:15 PM 42.8 °F 36.6 °F 33.8 °F 70% 30.15 in 10.0 mi NW 11.5 mph - N/A   Overcast
8:35 PM 42.8 °F 36.2 °F 33.8 °F 70% 30.16 in 10.0 mi NNW 12.7 mph - N/A   Overcast
8:55 PM 44.6 °F 38.8 °F 33.8 °F 66% 30.16 in 10.0 mi NNW 11.5 mph - N/A   Overcast
9:15 PM 44.6 °F 39.2 °F 33.8 °F 66% 30.17 in 10.0 mi NNW 10.4 mph - N/A   Overcast
9:35 PM 44.6 °F 38.8 °F 33.8 °F 66% 30.17 in 10.0 mi NNW 11.5 mph - N/A   Overcast
9:55 PM 44.6 °F 39.2 °F 33.8 °F 66% 30.18 in 10.0 mi NNW 10.4 mph - N/A   Overcast
10:15 PM 44.6 °F 37.8 °F 33.8 °F 66% 30.19 in 10.0 mi NNW 15.0 mph 19.6 mph N/A   Overcast
10:35 PM 44.6 °F 39.7 °F 33.8 °F 66% 30.19 in 10.0 mi NNW 9.2 mph - N/A   Overcast
10:55 PM 44.6 °F 39.2 °F 33.8 °F 66% 30.18 in 10.0 mi NNW 10.4 mph - N/A   Overcast
11:15 PM 44.6 °F 39.2 °F 33.8 °F 66% 30.18 in 10.0 mi NNW 10.4 mph - N/A   Overcast
11:35 PM 44.6 °F 38.8 °F 33.8 °F 66% 30.19 in 10.0 mi NNW 11.5 mph - N/A   Overcast
11:55 PM 44.6 °F 38.8 °F 33.8 °F 66% 30.19 in 10.0 mi North 11.5 mph - N/A   Overcast